Weather History for LIRE - January, 2014

Change the Weather History Date:

Sunday, January 5, 2014

  Actual Average Record
Temperature  
Mean Temperature 54 °F -  
Max Temperature 60 °F 55 °F 62 °F (1998)
Min Temperature 48 °F 39 °F 32 °F (2002)
Degree Days  
Heating Degree Days 11    
Growing Degree Days 4 (Base 50)    
Moisture  
Dew Point 52 °F    
Average Humidity 88    
Maximum Humidity 100    
Minimum Humidity 67    
Precipitation  
Precipitation 0.35 in 0.10 in - ()
Sea Level Pressure  
Sea Level Pressure 29.79 in    
Wind  
Wind Speed 15 mph ()    
Max Wind Speed 30 mph    
Max Gust Speed 50 mph    
Visibility 4.7 miles    
Events Rain , Thunderstorm    
Averages and records for this station are not official NWS values.
T = Trace of Precipitation, MM = Missing Value Source: Averaged Metar Reports

Daily Weather History Graph

Daily Weather History Graph

Search for Another Location

Airport or City:

Trip Planner

Search our weather history database for the weather conditions in past years. The results will help you decide how hot, cold, wet, or windy it might be!

Date:

Astronomy

Jan. 05, 2014 Rise Set
Actual Time 7:37 AM CET 4:54 PM CET
Civil Twilight 7:06 AM CET 5:25 PM CET
Nautical Twilight 6:31 AM CET 6:00 PM CET
Astronomical Twilight 5:57 AM CET 6:33 PM CET
Moon 10:04 AM CET (1/5) 10:07 PM CET (1/5)
Length of Visible Light 10h 19m
Length of Day
9h 16m
Waxing Crescent, 22% of the Moon is Illuminated
Jan 5
Waxing Crescent
Jan 8
First Quarter
Jan 16
Full
Jan 24
Last Quarter
Jan 30
New

Hourly Weather History & Observations

Time (CET) Temp. Dew Point Humidity Pressure Visibility Wind Dir Wind Speed Gust Speed Precip Events Conditions
12:55 AM 59.0 °F 57.2 °F 94% 29.92 in 5.0 mi SSE 15.0 mph - N/A   Mostly Cloudy
1:00 AM 59 °F 56 °F 88% 29.93 in 5 mi SSE 15.0 mph - -   Mist
1:55 AM 59.0 °F 57.2 °F 94% 29.92 in 5.0 mi SSE 15.0 mph - N/A   Mostly Cloudy
2:55 AM 59.0 °F 55.4 °F 88% 29.89 in 5.0 mi SSE 18.4 mph - N/A   Mostly Cloudy
3:55 AM 59.0 °F 55.4 °F 88% 29.86 in 5.0 mi SSE 16.1 mph - N/A   Mostly Cloudy
4:00 AM 59 °F 56 °F 87% 29.88 in 5 mi SSE 16.1 mph - -   Mist
4:55 AM 59.0 °F 57.2 °F 94% 29.80 in 5.0 mi SSE 20.7 mph - N/A   Mostly Cloudy
5:55 AM 59.0 °F 57.2 °F 94% 29.80 in 5.0 mi SSE 20.7 mph - N/A   Mostly Cloudy
6:55 AM 59.0 °F 57.2 °F 94% 29.74 in 4.3 mi SSE 20.7 mph - N/A Rain Light Rain
7:00 AM 59 °F 57 °F 92% 29.76 in 4 mi SSE 20.7 mph - - Rain Light Rain
7:55 AM 59.0 °F 57.2 °F 94% 29.74 in 3.1 mi South 23.0 mph 39.1 mph N/A Rain Heavy Rain
8:04 AM 59.0 °F 57.2 °F 94% 29.77 in 1.9 mi South 29.9 mph 49.5 mph N/A Rain Heavy Rain
8:26 AM 59.0 °F 57.2 °F 94% 29.74 in 3.1 mi WSW 15.0 mph - N/A Rain Rain
8:55 AM 51.8 °F 51.8 °F 100% 29.77 in 3.1 mi SSW 10.4 mph - N/A Rain Rain
9:23 AM 53.6 °F 51.8 °F 94% 29.77 in 3.7 mi SSE 10.4 mph - N/A Rain Light Rain
9:55 AM 53.6 °F 51.8 °F 94% 29.77 in 4.3 mi South 11.5 mph - N/A Rain Light Rain
10:00 AM 54 °F 53 °F 93% 29.78 in 4 mi South 11.5 mph - - Rain Light Rain
10:55 AM 55.4 °F 51.8 °F 88% 29.74 in 4.3 mi South 20.7 mph - N/A   Mostly Cloudy
11:22 AM 51.8 °F 48.2 °F 88% 29.74 in 4.3 mi SSW 6.9 mph - N/A Rain , Thunderstorm Light Thunderstorms and Rain
11:55 AM 55.4 °F 50.0 °F 82% 29.74 in 5.0 mi SW 13.8 mph 28.8 mph N/A Thunderstorm Thunderstorm
12:55 PM 57.2 °F 48.2 °F 72% 29.74 in 5.0 mi WSW 23.0 mph - N/A   Scattered Clouds
1:00 PM 56 °F 48 °F 68% 29.75 in 5 mi WSW 23.0 mph - - Thunderstorm Light Thunderstorm
1:55 PM 57.2 °F 48.2 °F 72% 29.74 in 6.2 mi WSW 21.9 mph - N/A   Scattered Clouds
2:55 PM 55.4 °F 44.6 °F 67% 29.77 in 6.2 mi WSW 20.7 mph - N/A   Scattered Clouds
3:55 PM 51.8 °F 44.6 °F 76% 29.77 in 3.1 mi SW 21.9 mph 33.4 mph N/A Rain Light Rain
4:00 PM 52 °F 45 °F 70% 29.79 in 3 mi SW 21.9 mph - - Rain Light Rain
4:55 PM 51.8 °F 48.2 °F 88% 29.77 in 5.0 mi SW 18.4 mph - N/A   Scattered Clouds
5:55 PM 55.4 °F 48.2 °F 77% 29.77 in 5.0 mi SW 23.0 mph - N/A Rain Light Rain
6:55 PM 53.6 °F 48.2 °F 82% 29.77 in 5.0 mi SSW 16.1 mph - N/A Rain Light Rain
7:00 PM 53 °F 48 °F 78% 29.79 in 5 mi SSW 16.1 mph - -   Mostly Cloudy
7:55 PM 51.8 °F 50.0 °F 94% 29.77 in 5.0 mi SSW 13.8 mph - N/A Rain Light Rain
8:55 PM 50.0 °F 48.2 °F 94% 29.77 in 5.0 mi SE 8.1 mph - N/A Rain Light Rain
9:55 PM 48.2 °F 48.2 °F 100% 29.80 in 6.2 mi East 16.1 mph - N/A Rain Light Rain
10:00 PM 49 °F 47 °F 92% 29.81 in 6 mi East 16.1 mph - - Rain Light Rain
10:55 PM 50.0 °F 48.2 °F 94% 29.83 in 6.2 mi East 11.5 mph - N/A Rain Light Rain
11:55 PM 50.0 °F 48.2 °F 94% 29.83 in 6.2 mi East 9.2 mph - N/A Rain Light Rain